Location: ??
(35.3639°N, 139.3468°E)
Time: 23:08:44
(UTC+00:00)

Daily predictions for brighter satellites

Satellite Brightness Start Highest point End
(mag) Time Altitude Azimuth Time Altitude Azimuth Time Altitude Azimuth
SL-16 R/B 4.0 17:00:11 32° NE 17:00:11 32° NE 17:04:08 10° N
USA 281 4.4 17:12:49 34° N 17:12:49 34° N 17:16:34 10° NNW
CZ-3 R/B 4.2 17:25:07 49° SW 17:34:38 64° S 17:46:26 10° E
CENTAUR R/B 4.5 17:44:02 16° NNW 17:44:02 16° NNW 17:47:12 10° N
CZ-2C R/B 4.0 17:39:49 10° NE 17:43:23 29° E 17:43:23 29° E
Cosmos 1605 Rocket 4.5 17:40:08 10° N 17:46:12 56° E 17:47:47 44° SE
Envisat 4.2 17:44:16 10° NNE 17:47:14 36° NNE 17:47:14 36° NNE
COSMOS 2428 3.8 17:47:29 10° NNW 17:56:06 29° SE 17:58:50 10° SSE
ADEOS II 4.2 17:52:02 10° N 17:53:07 16° NNW 17:53:07 16° NNW
Cosmos 1535 Rocket 4.4 17:54:26 10° N 18:00:10 77° N 18:00:10 77° N
Cosmos 2227 Rocket 3.5 17:59:19 26° SE 18:01:25 35° ESE 18:06:29 10° NE
Cosmos 2297 Rocket 2.1 18:08:17 80° NE 18:08:17 80° NE 18:13:40 10° NNE
Atlas Centaur 2 3.5 18:13:19 22° SE 18:13:19 22° SE 18:15:32 10° SE
Cosmos 2237 Rocket 3.6 18:09:10 10° N 18:14:22 36° ENE 18:19:33 10° SE
Cosmos 968 Rocket 4.3 18:18:11 38° NNW 18:18:11 38° NNW 18:21:39 10° N
Meteor 2-13 Rocket 4.3 18:19:59 65° SSW 18:20:53 79° W 18:27:01 10° N
Cosmos 839 Rocket 4.2 18:14:50 10° NNW 18:21:00 76° ENE 18:27:54 10° SSE
H-2A R/B 3.0 18:19:55 10° NNE 18:25:09 47° E 18:30:20 10° S
SJ 16-02 3.1 18:27:30 22° NNW 18:27:30 22° NNW 18:29:16 10° N
Gbstr 26 Del rocket 3.6 18:26:47 33° NW 18:29:26 75° NE 18:34:21 10° SE
SL-4 R/B 3.3 18:31:47 27° SE 18:31:50 27° SE 18:35:00 10° ENE
Cosmos 1607 4.4 18:29:03 10° NNW 18:35:16 60° ENE 18:41:20 10° SE
Cosmos 1814 Rocket 4.0 18:36:10 10° NNW 18:41:18 76° ENE 18:46:23 10° SSE
Cosmos 1238 Rocket 3.7 18:36:44 14° S 18:41:42 81° E 18:47:19 10° N
NOSS 2-2 (E) 3.5 18:41:39 51° SE 18:41:48 51° ESE 18:44:53 10° NE
SL-16 R/B 4.0 18:45:16 19° NW 18:45:16 19° NW 18:47:24 10° NW
ARIANE 6 FM1 Upper Stage 4.0 18:38:51 10° NNW 18:43:02 42° NE 18:47:10 10° SE
IRS-1D 3.5 18:38:43 10° NNE 18:44:05 87° ESE 18:47:44 21° SSW
Cosmos 2058 Rocket 3.6 18:45:06 41° NW 18:45:06 41° NW 18:48:34 10° N
Cosmos 1980 3.9 18:39:40 10° NNW 18:45:21 73° ENE 18:50:59 10° SSE
PAYLOAD A 3.8 18:40:41 10° N 18:45:29 69° WNW 18:46:57 44° SW
Cosmos 1782 2.9 18:48:07 55° NNW 18:48:07 55° NNW 18:51:18 10° N
USA 238 DEB 4.1 18:47:43 34° WNW 18:48:59 37° NW 18:55:05 10° NNE
USA 238 4.1 18:47:47 34° WNW 18:49:04 38° NW 18:55:11 10° NNE
IRAS Rocket 4.2 18:46:12 10° N 18:51:40 62° WNW 18:54:15 31° SW
Cosmos 2100 Rocket 4.3 18:45:43 10° N 18:51:53 68° E 18:57:59 10° SSE
NOSS 2-2 (D) 3.0 18:51:28 59° S 18:51:56 69° ESE 18:55:05 10° NE
Cosmos 1459 Rocket 4.5 18:47:27 10° N 18:53:41 64° E 18:59:57 10° SSE
Thor Agena Rocket 3.7 18:51:11 10° NNE 18:56:25 77° ESE 19:01:39 10° S
Cosmos 2084 Rocket 3.5 18:52:56 10° NNW 18:56:53 67° ENE 19:00:46 10° SE
DMSP B5D2-2 4.2 18:53:00 10° S 18:58:01 47° W 19:03:04 10° NNW
Cosmos-2242 2.8 18:56:03 30° SSW 18:58:02 74° W 19:02:18 10° N
NOSS 0 Rocket 3.9 18:52:06 10° NNW 18:58:08 56° WSW 19:04:07 10° S
Exosat Rocket 3.5 18:55:16 24° SSW 18:58:42 71° WNW 19:03:41 10° NNE
Cosmos 2219 3.8 18:55:09 10° S 19:00:41 58° ESE 19:06:17 10° NNE
DELTA 2 R/B (1) 4.2 19:01:39 32° SW 19:02:40 34° SW 19:07:38 10° SSE
Cosmos 44 3.6 19:01:31 36° WSW 19:03:09 50° WNW 19:07:55 10° NNE
Meteor 1-20 Rocket 4.2 18:58:30 10° NNW 19:04:16 63° W 19:09:59 10° S
Meteor 1-25 Rocket 4.1 19:01:04 10° NNW 19:06:38 75° W 19:12:15 10° S
Cosmos 1939 Rocket 3.3 19:03:53 10° NNE 19:07:49 62° E 19:11:42 10° S
Cosmos 2173 Rocket 3.9 19:02:50 10° N 19:09:06 90° SSE 19:15:14 10° S
SME Rocket 3.4 19:05:54 10° NNE 19:09:50 77° ESE 19:15:04 10° S
NOSS 2-2 (C) 3.6 19:10:00 33° NW 19:10:00 33° NW 19:12:47 10° NNE
Cosmos 546 4.5 19:11:32 37° WSW 19:12:54 76° NW 19:16:42 10° NE
SeaSat 1 2.6 19:11:17 10° SSE 19:16:10 75° ENE 19:21:04 10° NNW
RUBIN 8/PSLV 4.5 19:11:51 10° NNE 19:16:13 89° WNW 19:20:30 10° SSW
Cosmos 304 Rocket 3.6 19:11:57 10° SSW 19:16:43 79° WNW 19:21:31 10° NNE
ARGOS 3.6 19:12:44 10° NNE 19:18:04 64° ESE 19:23:23 10° S
Cosmos 1727 Rocket 4.5 19:14:05 18° SW 19:18:08 37° WNW 19:23:48 10° NNW
SL-16 R/B 3.8 19:14:43 10° N 19:19:55 37° ENE 19:25:06 10° SE
NOSS 2-3 (C) 2.9 19:18:32 23° SW 19:20:39 74° WNW 19:24:20 10° NNE
CZ-2C R/B 3.4 19:18:13 10° NNW 19:21:49 22° WNW 19:22:39 21° W
Meteor 1-26 Rocket 4.4 19:16:29 10° S 19:22:26 87° E 19:28:31 10° N
Cosmos 2263 Rocket 2.4 19:17:26 10° SSW 19:22:59 72° ESE 19:28:38 10° NNE
Meteor 2-2 Rocket 4.4 19:17:22 10° SSW 19:23:16 61° W 19:29:15 10° N
SL-12 R/B(2) 4.5 19:16:19 10° SSW 19:23:52 70° ESE 19:32:49 10° NE
Cosmos 1340 2.1 19:20:59 10° N 19:24:13 83° W 19:27:25 10° S
BREEZE M DEB (TANK) 4.3 19:25:25 10° NNW 19:27:19 22° NE 19:29:51 10° E
Cosmos 371 Rocket 3.6 19:27:05 12° SW 19:31:24 46° WNW 19:36:02 10° N
Cosmos 2123 Rocket 4.0 19:25:45 10° SSW 19:31:59 64° W 19:38:15 10° N
NOSS 2-3 (D) 3.2 19:30:44 16° SW 19:33:36 58° WNW 19:37:18 10° NNE
COSMOS 2428 4.4 19:38:40 12° WSW 19:38:40 12° WSW 19:39:43 10° SW
BREEZE-M R/B 4.1 19:37:11 11° NW 19:38:04 13° NNW 19:39:18 10° N
GP-B 4.0 19:34:42 10° SW 19:38:24 26° W 19:42:08 10° NNW
Meteor 2-19 Rocket 4.5 19:32:46 10° SSW 19:38:44 59° W 19:44:42 10° N
Cosmos 1743 2.9 19:35:36 10° N 19:39:09 66° E 19:42:42 10° SSE
ARIANE 5 R/B 3.8 19:39:38 10° NNE 19:44:27 43° E 19:49:11 10° S
Cosmos 2227 Rocket 3.1 19:41:12 12° WSW 19:45:26 28° WNW 19:50:15 10° N
H-2A R/B 3.2 19:42:58 10° NNE 19:45:46 46° E 19:48:36 10° S
Cosmos 1726 1.1 19:44:19 10° N 19:47:00 83° W 19:49:40 10° S
Cosmos 2221 2.4 19:45:26 10° S 19:49:42 76° W 19:54:00 10° N
Cosmos 1725 Rocket 4.0 19:43:59 10° NNW 19:50:12 70° W 19:56:27 10° S
SL-08 RB Rocket 3.6 19:46:00 10° N 19:50:26 80° WNW 19:54:51 10° SSW
Lacrosse 5 4.3 19:47:01 10° N 19:50:37 19° NE 19:54:11 10° E
Cosmos 2297 Rocket 4.0 19:50:24 10° WNW 19:52:44 12° NW 19:55:05 10° NNW
[s.n.71428] 3.9 19:51:40 10° NNW 19:54:04 36° NE 19:56:28 10° ESE
[s.n.71427] 3.9 19:51:40 10° NNW 19:54:05 36° NE 19:56:28 10° ESE
Cosmos 1340 Rocket 3.4 19:52:39 10° SW 19:56:16 35° WNW 19:59:53 10° N
Cosmos 1570 Rocket 4.1 19:52:10 10° NNW 19:57:16 56° WSW 20:02:21 10° S
Cosmos 2237 Rocket 3.1 19:53:33 10° NW 19:58:11 26° WSW 20:02:48 10° SSW
Atlas Centaur 2 3.7 19:56:03 10° WSW 19:59:10 17° SSW 20:02:42 10° SSE
CZ-3 Stage 3 3.2 19:57:53 10° WSW 20:01:54 58° SSE 20:16:39 10° E
Cosmos 2233 Rocket 4.0 19:57:43 10° N 20:04:03 82° W 20:10:21 10° S
H-2A R/B 3.5 20:00:14 10° NNW 20:04:04 20° WNW 20:07:55 10° WSW
Cosmos 1484 Rocket 3.9 20:02:20 10° NNW 20:05:22 24° WNW 20:08:24 10° SW
